Weather Roundup
Issued by NWS

Home | Current Version | Previous Version | Text Only | Print | Product List | Glossary On
Versions: 1 2 3 4 5 6 7 8 9 10 11 12 13 14 15 16 17 18 19 20 21 22 23 24 25 26 27 28 29 30 31 32 33 34 35 36 37 38 39 40 41 42 43 44 45 46 47 48 49 50
078
NZUS93 KARX 270510
HRRWXR

CURRENT HOURLY OBSERVATIONS ACROSS
MUCH OF THE UPPER MISSISSIPPI VALLEY
NATIONAL WEATHER SERVICE LA CROSSE WI
1100 PM CST SUN FEB 26 2017


...SOUTHEAST MINNESOTA...


CITY           SKY/WX    TMP DP  RH WIND       PRES   REMARKS
ROCHESTER      CLEAR     16  14  92 S6        29.96F WCI   7
ROCHESTER/MAYO FAIR      24  22  91 CALM      29.98S
WINONA         CLEAR     28  23  80 CALM      30.02R
AUSTIN         CLEAR     18  16  93 S3        29.98S
ALBERT LEA     CLEAR     23  21  93 SW6       29.97S WCI  16
DODGE CENTER   NOT AVBL
PRESTON        CLEAR     20  18  90 SW8       29.99R WCI  10
OWATONNA       CLEAR     21  19  93 S8        29.95S WCI  12
FARIBAULT      CLEAR     25  21  86 S7        29.96S WCI  17
$$

...ELSEWHERE IN MINNESOTA...


CITY           SKY/WX    TMP DP  RH WIND       PRES   REMARKS
MINNEAPOLIS    CLOUDY    30  15  53 CALM      29.95F
INTNL FALLS    CLEAR     10   1  67 W5        29.87R WCI   2
DULUTH         CLEAR      6   0  76 CALM      29.89R
RED WING       CLOUDY    25  18  74 CALM      29.97S
REDWOOD FALLS  CLEAR     27  20  75 SE6       29.91F WCI  20
MANKATO        NOT AVBL
WORTHINGTON    CLEAR     27  23  85 SW12      29.92F WCI  17
FAIRMONT       CLEAR     23  19  85 SW9       29.96S WCI  13
$$

...SOUTHWEST WISCONSIN...


CITY           SKY/WX    TMP DP  RH WIND       PRES   REMARKS
LA CROSSE      CLEAR     28  22  78 SE6       30.01S WCI  22
PRAIRIE DU CHI CLEAR     27  23  84 CALM      30.03S
BOSCOBEL       CLEAR     26  22  84 CALM      30.03R
LONE ROCK      CLEAR     31  24  75 CALM      30.03R
PLATTEVILLE    CLEAR     31  25  81 W3        30.02S
FORT MC COY    CLEAR     26  22  86 CALM      30.02R
CAMP DOUGLAS   CLEAR     27  21  79 W5        29.99R WCI  21
MAUSTON-NEW LI CLEAR     30  22  74 CALM      29.99R
VIROQUA        FAIR      25  23  91 SW5       29.99R WCI  20
WIS DELLS      CLEAR     29  22  74 SW5       30.00R WCI  24
$$

...ELSEWHERE IN WISCONSIN...


CITY           SKY/WX    TMP DP  RH WIND       PRES   REMARKS
MILWAUKEE      PTCLDY    36  23  59 SW7       30.01R WCI  30
MADISON        CLEAR     30  23  75 W3        30.01R
GREEN BAY      CLEAR     31  22  69 W9        29.97R WCI  23
EAU CLAIRE     CLOUDY    22  17  81 CALM      29.97R
BLACK RVR FLS  FAIR      26  22  83 CALM      29.99R
MEDFORD        CLEAR     18  10  70 CALM      29.93R
WAUSAU         CLEAR     26  17  68 NW6       29.93R WCI  19
WIS RAPIDS     CLEAR     28  22  78 W7        29.98R WCI  21
MARSHFIELD     CLEAR     23  18  81 W7        29.94R WCI  15
RICE LAKE      CLOUDY    22  15  72 CALM      29.96S
$$

...NORTHEAST IOWA...


CITY           SKY/WX    TMP DP  RH WIND       PRES   REMARKS
WATERLOO       CLEAR     23  20  88 CALM      30.02S
DUBUQUE        CLEAR     29  24  82 SW3       30.03R
DECORAH        CLEAR     25  23  93 SW3       30.00S
MASON CITY     CLEAR     23  18  81 SW6       30.00S WCI  16
CHARLES CITY   CLEAR     21  21 100 SE5       30.01S WCI  15
OELWEIN        CLEAR     27  27 100 CALM      30.02R
$$

...ELSEWHERE IN IOWA...


CITY           SKY/WX    TMP DP  RH WIND       PRES   REMARKS
DES MOINES     MOCLDY    31  21  66 SE8       30.03S WCI  23
IOWA CITY      CLOUDY    32  25  75 CALM      30.07R
FORT DODGE     CLEAR     21  18  86 CALM      30.00S
MARSHALLTOWN   CLEAR     26  24  92 S3        30.02R
CEDAR RAPIDS   MOCLDY    27  25  92 CALM      30.04R
$$

...NORTHERN ILLINOIS...


CITY           SKY/WX    TMP DP  RH WIND       PRES   REMARKS
CHICAGO-OHARE  PTCLDY    39  27  62 SW9       30.05R WCI  33
CHICAGO-MIDWAY PTCLDY    39  24  55 SW10      30.07R WCI  32
MOLINE         MOCLDY    33  29  85 CALM      30.06R
ROCKFORD       PTCLDY    34  28  79 S5        30.07R WCI  30
PEORIA         CLEAR     33  23  66 S7        30.10R WCI  27
$$

NOTE: "FAIR" INDICATES FEW OR NO CLOUDS BELOW 12,000 FEET WITH NO
SIGNIFICANT WEATHER AND/OR OBSTRUCTIONS TO VISIBILITY. WIND
SPEEDS ARE IN MILES-PER-HOUR.




USA.gov is the U.S. government's official web portal to all federal, state and local government web resources and services.